Location: Friedrichshafen
(47.6598°N, 9.4819°E)
Time: 11:34:22
(UTC+02:00)

ISS - Visible Passes

Search period start: 25 September 2017 00:00
Search period end: 05 October 2017 00:00
Orbit: 401 x 407 km, 51.6° (Epoch: 25 September)

Date Brightness Start Highest point End Pass type
(mag) Time Alt. Az. Time Alt. Az. Time Alt. Az.
25 Sep -1.5 21:18:37 10° SW 21:19:29 17° SSW 21:19:29 17° SSW visible
26 Sep -2.7 20:26:44 10° SSW 20:29:30 26° SE 20:29:49 25° SE visible
26 Sep -0.5 22:02:30 10° WSW 22:02:30 10° WSW 22:02:30 10° WSW visible
27 Sep -3.2 21:10:06 10° WSW 21:12:39 50° SW 21:12:39 50° SW visible
28 Sep -3.6 20:17:52 10° SW 20:21:02 50° SSE 20:22:37 25° E visible
28 Sep -0.9 21:54:22 10° W 21:55:17 17° W 21:55:17 17° W visible
29 Sep -3.5 21:01:50 10° W 21:05:04 62° NNW 21:05:07 62° NNW visible
30 Sep -3.9 20:09:21 10° WSW 20:12:38 88° NNW 20:14:52 19° ENE visible
30 Sep -1.1 21:46:13 10° WNW 21:47:30 20° WNW 21:47:30 20° WNW visible
01 Oct -3.1 20:53:38 10° W 20:56:48 45° N 20:57:10 42° NNE visible
02 Oct -3.3 20:01:02 10° W 20:04:16 56° NNW 20:06:46 16° ENE visible
02 Oct -1.3 21:37:58 10° WNW 21:39:24 22° NW 21:39:24 22° NW visible
03 Oct -2.9 20:45:24 10° WNW 20:48:31 39° N 20:48:57 37° NNE visible
04 Oct -2.9 19:52:47 10° W 19:55:56 42° N 19:58:28 14° ENE visible
04 Oct -1.4 21:29:36 10° WNW 21:31:06 23° NW 21:31:06 23° NW visible
